Location: Mitty Observatory
(35.9148°N, 88.8847°W)
Time: 13:16:33
(UTC-05:00)

Tiangong 2 - Visible Passes

Search period start: 22 March 2019 00:00
Search period end: 01 April 2019 00:00
Orbit: 379 x 390 km, 42.8° (Epoch: 22 March)

Date Brightness Start Highest point End Pass type
(mag) Time Alt. Az. Time Alt. Az. Time Alt. Az.
22 Mar 1.0 05:51:54 24° WNW 05:53:41 83° SSW 05:56:51 10° ESE visible
23 Mar 3.1 04:55:33 28° E 04:55:33 28° E 04:57:18 10° ESE visible
24 Mar 1.6 05:31:36 41° SSW 05:31:36 41° SSW 05:34:24 10° SE visible
25 Mar 3.3 06:07:50 11° SW 06:08:17 11° SW 06:09:19 10° SSW visible
28 Mar 4.0 21:16:07 10° SW 21:16:23 12° SW 21:16:23 12° SW visible
29 Mar 1.8 20:16:53 10° SSW 20:19:45 34° SSE 20:20:30 29° ESE visible
30 Mar 1.4 20:53:45 10° WSW 20:56:41 62° NW 20:56:41 62° NW visible
31 Mar 1.0 19:54:13 10° SW 19:57:20 69° SSE 20:00:25 10° ENE visible
31 Mar 3.9 21:31:27 10° WNW 21:32:40 19° WNW 21:32:40 19° WNW visible
